Location: Lincoln Park
(32.7042°N, 117.0895°W)
Time: 12:32:51
(UTC+00:00)

PSLV R/B - Pass Details

Date: 26 June 2022
Orbit: 591 x 626 km, 98.0° (Epoch: 14 August)

Event Time Altitude Azimuth Distance (km) Brightness Sun altitude
Rises 12:02:49 0° 18° (NNE) 2,868 7.9 -7.9°
Reaches altitude 10° 12:05:04 10° 23° (NNE) 1,954 7.1 -7.5°
Maximum altitude 12:09:12 52° 100° (E) 747 4.3 -6.8°
Drops below altitude 10° 12:13:16 10° 177° (S) 1,923 5.8 -6.1°
Sets 12:15:28 0° 182° (S) 2,816 6.6 -5.7°
